Location: Lugrin
(46.4033°N, 6.6674°E)
Time: 16:59:46
(UTC+00:00)

NOSS 8 (F) - Pass Details

Date: 18 September 2020
Orbit: 385 x 1787 km, 63.3° (Epoch: 28 October)

Event Time Altitude Azimuth Distance (km) Brightness Sun altitude
Rises 18:04:59 0° 217° (SW) 2,533 8.6 -5.4°
Reaches altitude 10° 18:07:15 10° 216° (SW) 1,544 7.5 -5.8°
Maximum altitude 18:10:31 85° 128° (SE) 403 4.1 -6.4°
Drops below altitude 10° 18:13:31 10° 40° (NE) 1,418 6.6 -6.9°
Sets 18:15:31 0° 40° (NE) 2,298 7.7 -7.2°
